NG6B-2 Weather Reports


time (UTC)temp
F
wind
direction
speed
knots
gust
knots
rain 1hr
in
rain 24hr
in
rain mn
in
humidity
%
barometer
mb
20260506070531 57 246 0.0 0.0 0.00 0.00 0.00 58 1007.9
20260506060529 58 174 0.0 1.7 0.00 0.02 0.02 58 1007.8
20260506050527 61 284 0.0 0.0 0.00 0.07 0.07 50 1007.3
20260506043526 62 124 0.0 2.6 0.00 0.08 0.07 48 1007.0
20260506040525 63 208 0.0 3.5 0.00 0.08 0.07 43 1006.6
20260506033524 63 269 0.0 0.0 0.00 0.08 0.07 42 1006.2
20260506030523 64 276 5.2 6.1 0.00 0.08 0.07 39 1005.7
20260506023522 66 295 4.3 8.7 0.00 0.08 0.07 37 1005.2
20260506020521 67 243 3.5 11.3 0.00 0.08 0.07 31 1004.6
20260506013520 69 269 7.8 11.3 0.00 0.08 0.07 29 1004.2
20260506010519 70 266 9.6 16.5 0.00 0.08 0.07 28 1003.9
20260506003518 72 186 7.0 11.3 0.00 0.08 0.07 26 1003.8
20260506000517 72 235 5.2 19.1 0.00 0.08 0.07 24 1003.6
20260505233516 73 226 5.2 14.8 0.00 0.08 0.07 20 1003.3
20260505230515 74 255 3.5 13.9 0.00 0.08 0.07 27 1003.2
20260505223514 74 277 7.0 14.8 0.00 0.08 0.07 28 1003.5
20260505220513 74 259 9.6 15.6 0.00 0.08 0.07 30 1003.8
20260505213512 75 165 7.0 15.6 0.00 0.08 0.07 30 1004.1
20260505210511 74 174 0.9 16.5 0.00 0.08 0.07 32 1004.2
20260505203510 75 239 7.0 16.5 0.00 0.08 0.07 31 1004.7
20260505200509 74 259 6.1 14.8 0.00 0.08 0.07 32 1004.8
20260505193508 72 156 2.6 14.8 0.00 0.08 0.07 36 1004.9
20260505190507 70 297 2.6 5.2 0.00 0.08 0.07 50 1005.2
20260505183506 68 212 2.6 5.2 0.00 0.08 0.07 53 1005.7
20260505180505 68 295 2.6 3.5 0.00 0.08 0.07 54 1005.9
20260505173504 66 318 4.3 5.2 0.00 0.08 0.07 58 1006.1
20260505170503 66 335 0.9 7.0 0.00 0.08 0.07 59 1006.2
20260505163502 64 322 2.6 6.1 0.00 0.08 0.07 64 1006.4
20260505160501 64 262 4.3 6.1 0.00 0.08 0.07 64 1006.2
20260505150459 59 86 0.0 0.0 0.00 0.08 0.07 79 1006.0
20260505140457 57 96 0.0 1.7 0.00 0.08 0.07 86 1005.7
20260505123454 56 37 0.0 0.0 0.00 0.08 0.07 90 1004.9
20260505120453 56 90 0.0 4.3 0.00 0.08 0.07 88 1004.7
20260505113452 56 83 1.7 6.1 0.00 0.08 0.07 89 1004.3
20260505110451 56 112 2.6 4.3 0.00 0.08 0.07 89 1005.1
20260505100449 56 84 1.7 2.6 0.00 0.08 0.07 90 1005.9
20260505093448 57 98 3.5 5.2 0.00 0.08 0.07 90 1006.6
20260505090447 57 96 1.7 5.2 0.02 0.08 0.07 89 1007.6
20260505083446 57 110 0.0 0.9 0.04 0.08 0.07 87 1008.3
20260505080445 58 273 0.0 2.6 0.04 0.06 0.05 84 1008.8
20260505073444 58 273 0.0 0.9 0.02 0.03 0.02 84 1008.9